Terminal Aerodrome Forecast
Issued by NWS Mt. Holly, NJ

Home | Current Version | Previous Version | Text Only | Print | Product List | Glossary On
Versions: 1 2 3 4 5 6 7 8 9 10 11 12 13 14 15 16 17 18 19 20
000
FTUS41 KPHI 301300 AAB
TAFTTN
TAF AMD
KTTN 301321Z 3013/3112 32006KT P6SM SCT050
     FM301600 34008KT P6SM SCT050
     FM310400 01003KT P6SM SCT250=

USA.gov is the U.S. government's official web portal to all federal, state and local government web resources and services.